Wind_Speed
7 8 10 12 13 15 16 17 18 19 21 21 22 22 23 24 23 24 25 25 24 25 25 26 26 25 25 26 26 27 27 27 27 27 28 28 29 28 29 30 29 29 29 30
8 10 12 13 14 16 17 18 19 21 21 22 22 22 23 23 24 24 24 24 25 25 25 26 25 25 25 26 26 26 27 27 28 28 29 29 29 29 30 30 29 30 29 28
9 11 13 14 15 17 18 19 20 21 22 22 23 23 23 24 25 25 24 24 24 24 24 25 25 25 25 26 26 26 27 27 28 29 29 30 29 30 29 30 31 29 29 28
11 12 13 14 16 17 19 20 20 20 20 21 22 22 23 23 24 24 24 24 24 24 25 25 25 25 25 26 27 27 27 27 28 29 30 31 30 29 29 30 30 29 28 28
12 13 14 15 16 17 19 20 20 20 21 21 22 22 23 23 23 24 24 24 24 25 25 25 26 25 25 25 26 26 27 28 29 29 29 30 29 29 28 29 28 28 27 27
14 15 16 17 18 19 20 20 21 21 21 22 22 22 23 24 25 24 24 25 25 25 25 25 26 26 26 26 27 27 28 28 29 29 29 29 28 28 27 27 26 26 26 26
16 17 18 19 20 21 21 21 21 21 21 22 23 24 24 26 26 25 25 25 26 25 25 26 26 27 27 27 28 28 28 29 29 28 28 27 27 26 26 26 25 25 25 26
17 18 20 20 21 22 22 22 22 23 24 25 25 24 24 26 26 25 26 26 27 26 26 26 26 26 27 27 27 27 28 27 27 27 27 27 26 25 25 25 24 24 24 24
19 19 21 22 22 22 23 24 24 25 26 26 25 25 24 26 27 27 26 26 27 27 26 25 25 25 26 26 26 26 26 26 27 26 26 25 23 23 23 23 23 23 23 22
22 22 23 23 24 24 25 26 26 26 26 26 26 26 27 28 29 28 27 27 27 27 26 25 25 25 25 24 24 25 25 25 25 24 24 23 22 21 22 22 21 21 21 21
23 24 25 25 25 25 26 27 27 27 26 26 27 27 27 28 28 29 28 27 27 27 27 26 25 26 25 24 24 24 24 25 24 24 24 22 21 21 20 20 19 19 20 20
24 25 26 26 26 27 27 27 27 27 27 27 27 30 29 29 29 29 28 27 26 26 26 26 26 26 25 24 23 23 23 23 23 23 22 21 20 20 19 18 17 17 17 18
25 25 26 27 28 28 27 27 27 28 28 28 28 30 30 29 29 28 27 26 26 25 25 25 24 25 24 23 22 22 23 23 22 22 22 21 19 18 18 18 17 17 17 17
26 27 27 27 27 28 27 27 27 28 28 29 29 29 29 29 28 27 26 26 25 24 24 24 22 22 22 21 21 21 21 21 21 21 22 21 19 18 18 17 16 16 16 15
28 28 27 27 27 28 28 28 28 28 28 28 28 28 28 28 28 26 26 25 24 23 23 22 21 21 20 19 19 19 19 20 20 20 20 20 18 17 17 16 15 15 14 14
28 28 28 27 27 28 27 27 27 27 27 27 27 28 27 27 27 25 25 24 23 23 22 21 20 19 19 18 18 18 18 18 18 18 17 16 16 16 16 16 16 15 14 12
28 28 28 27 27 28 27 28 28 27 26 26 26 27 27 27 25 24 24 23 22 21 21 20 18 18 18 17 17 16 16 16 16 16 16 16 16 15 15 15 15 13 12 12
28 28 28 28 28 29 28 28 27 27 26 26 26 26 25 26 24 23 22 22 21 20 20 19 18 17 17 16 16 16 16 16 16 15 15 15 14 14 13 14 13 12 11 12
28 28 28 28 29 29 28 27 27 27 27 25 25 25 25 25 23 21 21 21 20 19 20 19 18 17 17 16 16 16 17 17 15 14 13 13 13 12 13 12 11 11 11 11
28 27 27 27 28 28 28 28 28 28 27 26 25 25 24 24 23 22 21 20 19 19 19 19 17 17 16 16 16 16 15 15 14 13 12 12 12 12 11 10 10 10 10 11
28 28 28 27 28 29 29 28 28 27 26 26 25 24 24 23 23 22 21 20 19 18 18 17 17 16 15 15 15 14 14 13 13 12 11 11 11 11 10 10 10 10 10 11
30 29 28 28 29 29 29 29 27 26 26 25 24 24 23 23 22 20 19 18 17 16 15 15 14 13 13 13 13 13 12 12 12 11 11 10 10 9 9 9 9 9 10 11
29 28 28 28 28 29 28 28 28 26 25 25 24 24 23 22 21 19 17 15 15 13 13 13 13 12 11 11 11 11 11 11 11 10 10 9 8 8 8 8 8 8 10 10
29 28 28 28 28 28 27 27 27 26 25 25 23 22 22 20 18 17 16 14 14 12 12 11 11 11 10 9 10 9 9 9 9 9 8 8 7 7 8 8 8 9 9 9
28 29 29 29 28 28 27 26 26 26 25 24 22 20 19 18 16 15 14 13 12 11 10 9 9 9 9 8 8 8 8 7 7 7 7 7 6 6 7 8 8 9 9 10
29 30 30 29 28 27 25 24 24 24 23 22 20 18 17 16 15 14 13 11 10 9 8 8 8 8 7 7 7 7 7 6 6 6 6 6 6 6 7 7 8 8 9 9
Wind_Direction
264 268 269 274 277 278 281 286 289 292 294 296 297 297 298 299 299 299 300 299 297 297 295 294 295 291 288 288 288 288 289 290 291 292 292 291 291 290 289 288 287 287 287 284
277 276 280 282 283 284 285 288 289 290 293 296 297 297 298 299 299 299 300 300 299 297 297 296 293 290 286 287 288 288 289 290 291 292 292 291 289 291 292 289 288 288 286 283
285 287 288 287 288 290 290 289 290 293 295 297 299 301 300 300 299 298 299 299 298 298 299 298 296 292 289 289 289 289 290 292 293 294 294 293 292 292 291 290 288 288 287 285
296 298 299 296 295 297 296 296 297 298 299 302 301 302 303 301 301 300 300 300 299 297 297 296 296 295 292 291 289 290 291 293 293 296 295 295 293 292 290 289 288 289 290 286
302 303 301 300 300 300 298 299 300 300 301 302 303 303 302 302 302 302 301 301 301 298 296 295 295 295 294 293 293 293 292 294 296 297 298 296 295 294 290 290 290 289 289 288
303 304 302 302 302 302 302 303 303 304 305 304 303 302 302 302 303 302 302 302 302 301 298 297 296 296 294 293 293 294 294 295 296 296 297 296 296 295 293 293 291 289 289 289
305 304 303 302 303 303 304 306 307 306 305 302 301 300 299 300 302 302 302 302 303 302 301 299 298 297 295 293 293 293 294 295 296 297 297 297 297 295 293 292 291 290 290 290
303 302 304 304 303 303 303 305 304 302 302 302 303 302 302 301 302 302 303 304 304 304 303 300 300 299 297 295 294 294 295 296 297 298 298 298 295 294 293 292 291 293 291 291
300 299 302 304 304 304 304 304 302 303 303 303 303 303 302 301 301 302 302 303 303 303 302 301 301 300 298 297 295 296 296 296 297 299 300 299 297 296 295 294 293 293 292 292
302 302 303 304 304 304 304 304 304 305 304 303 302 304 305 305 304 303 303 303 303 302 302 301 300 300 298 297 297 298 298 298 298 300 301 301 298 297 297 297 296 295 293 293
303 304 305 306 306 305 306 305 304 303 301 301 301 301 302 304 304 304 304 303 304 301 301 300 300 300 298 295 296 297 298 298 297 299 303 301 299 298 299 300 299 298 295 296
305 306 306 306 305 304 304 305 305 303 302 300 300 300 302 302 303 303 303 304 304 303 301 300 300 299 297 295 297 298 299 299 300 301 304 303 298 298 298 299 302 302 301 301
308 308 308 309 309 308 307 306 306 304 302 300 299 300 301 301 302 302 302 304 305 304 303 302 300 299 299 297 297 298 300 300 301 304 305 303 299 300 298 298 301 302 302 303
308 308 308 306 305 305 305 304 303 302 303 301 299 299 299 300 301 300 301 303 304 302 302 303 302 300 299 300 299 297 297 301 304 305 304 302 300 300 298 296 299 301 302 304
308 308 307 306 306 305 305 305 304 303 302 301 300 299 300 301 300 301 301 302 301 299 299 300 302 302 302 302 300 298 299 302 305 307 307 305 301 301 300 300 302 302 302 302
309 308 308 308 308 306 306 307 306 305 303 301 301 300 301 300 300 300 300 299 299 298 298 299 300 302 302 302 302 301 302 303 307 308 312 310 308 304 303 303 304 304 303 303
311 310 309 309 308 308 308 309 309 308 307 304 303 301 300 300 302 302 300 299 299 297 298 298 299 299 299 301 302 304 306 306 308 311 311 312 311 308 305 305 307 306 307 305
313 311 309 309 310 309 310 311 312 309 308 306 304 301 300 301 302 302 301 301 299 298 298 299 299 299 300 302 302 305 309 309 311 314 314 312 311 306 305 307 307 306 304 303
311 310 310 310 310 309 309 311 312 311 310 309 307 305 304 304 303 303 302 302 300 298 299 298 298 297 297 299 301 303 307 308 309 311 312 313 310 306 303 302 304 306 307 309
312 311 311 310 310 311 312 313 313 312 311 311 309 308 307 305 304 302 302 302 300 299 298 296 297 297 296 297 299 302 306 308 307 308 312 314 312 309 307 306 307 310 310 312
311 310 309 309 309 310 312 312 311 310 311 311 309 308 305 303 304 303 302 301 299 297 297 297 299 299 298 299 302 303 304 306 306 305 309 314 314 314 315 317 315 314 315 318
309 308 307 308 309 310 310 310 309 306 306 309 308 307 306 304 303 301 300 300 299 297 297 299 302 302 301 301 304 305 305 306 307 304 306 311 315 317 320 324 321 317 320 320
308 308 306 307 307 307 309 308 306 305 305 309 309 306 305 305 302 299 298 298 299 296 300 302 304 304 304 304 306 307 307 307 307 303 303 307 317 321 323 327 327 325 327 325
307 307 305 303 304 305 306 306 305 304 306 310 310 307 307 304 301 300 296 296 297 296 299 302 304 308 305 304 308 310 312 313 311 306 305 308 318 326 333 333 334 333 334 335
307 306 304 303 304 305 303 303 305 305 305 309 310 308 306 304 302 299 296 294 293 293 295 299 303 309 307 304 310 315 317 320 318 314 312 313 319 330 339 337 341 341 340 340
305 304 303 304 304 304 305 304 304 304 305 306 307 307 306 302 298 294 292 288 288 289 289 293 297 304 310 315 315 315 316 324 323 316 316 317 322 329 338 339 345 348 347 347
Height
5888 5890 5889 5888 5887 5886 5885 5884 5882 5880 5878 5876 5874 5872 5870 5867 5864 5862 5860 5857 5855 5852 5850 5847 5845 5842 5840 5838 5836 5834 5831 5829 5826 5824 5821 5818 5815 5813 5811 5809 5807 5805 5802 5800
5888 5887 5886 5884 5883 5882 5881 5880 5878 5876 5873 5871 5869 5867 5865 5862 5860 5857 5854 5851 5849 5846 5843 5841 5838 5836 5834 5832 5830 5828 5825 5822 5820 5817 5814 5811 5809 5806 5804 5802 5801 5798 5795 5793
5885 5885 5883 5881 5880 5879 5877 5876 5873 5871 5869 5867 5864 5863 5860 5857 5854 5852 5849 5846 5843 5840 5838 5835 5832 5830 5828 5826 5824 5821 5819 5816 5814 5810 5807 5805 5801 5799 5797 5795 5793 5791 5788 5786
5882 5881 5879 5878 5877 5875 5873 5871 5869 5867 5865 5863 5861 5859 5856 5852 5849 5846 5843 5840 5838 5835 5832 5830 5827 5824 5822 5820 5817 5815 5813 5810 5807 5804 5801 5798 5795 5792 5790 5787 5785 5783 5781 5779
5880 5878 5876 5875 5873 5871 5869 5867 5864 5862 5860 5858 5856 5854 5852 5847 5844 5841 5838 5835 5832 5830 5827 5824 5821 5819 5816 5813 5811 5808 5806 5804 5801 5797 5794 5791 5788 5785 5783 5780 5778 5776 5774 5771
5877 5874 5873 5871 5869 5866 5864 5862 5860 5858 5856 5854 5851 5849 5846 5841 5838 5835 5832 5830 5827 5824 5821 5818 5815 5812 5810 5807 5805 5802 5800 5797 5794 5791 5788 5785 5782 5778 5776 5773 5771 5769 5767 5764
5874 5871 5869 5867 5865 5862 5860 5858 5856 5855 5853 5850 5846 5842 5840 5835 5832 5829 5827 5824 5821 5818 5815 5812 5809 5806 5803 5801 5798 5796 5793 5790 5787 5784 5781 5778 5775 5772 5769 5767 5765 5762 5760 5757
5870 5869 5864 5862 5860 5857 5855 5853 5851 5849 5847 5844 5840 5837 5834 5829 5826 5823 5820 5817 5814 5811 5808 5805 5802 5799 5796 5794 5791 5789 5786 5783 5780 5778 5775 5772 5769 5766 5763 5761 5758 5756 5754 5751
5865 5863 5860 5857 5854 5852 5849 5847 5844 5841 5838 5836 5834 5831 5828 5823 5819 5817 5814 5811 5808 5804 5801 5798 5795 5792 5790 5787 5784 5781 5779 5777 5774 5771 5768 5765 5763 5760 5757 5755 5752 5750 5748 5745
5858 5857 5855 5851 5849 5846 5844 5840 5838 5835 5832 5829 5828 5825 5822 5817 5813 5810 5808 5805 5802 5798 5795 5792 5789 5786 5783 5781 5778 5775 5773 5770 5768 5764 5762 5759 5757 5754 5751 5749 5747 5744 5742 5739
5853 5851 5849 5846 5843 5840 5837 5834 5831 5828 5825 5822 5820 5820 5815 5810 5807 5804 5801 5798 5795 5792 5789 5786 5783 5780 5777 5775 5772 5770 5767 5765 5762 5759 5756 5753 5751 5749 5746 5744 5742 5739 5736 5734
5848 5845 5842 5840 5836 5833 5830 5827 5824 5821 5818 5815 5812 5813 5807 5804 5800 5797 5794 5791 5789 5786 5783 5780 5777 5774 5771 5769 5766 5764 5762 5759 5757 5754 5751 5748 5746 5743 5741 5739 5737 5734 5732 5729
5842 5840 5836 5834 5831 5827 5823 5820 5816 5813 5810 5808 5805 5805 5800 5796 5793 5790 5787 5785 5782 5779 5777 5774 5771 5768 5765 5763 5761 5759 5757 5754 5751 5748 5746 5743 5741 5738 5736 5734 5732 5730 5728 5725
5836 5833 5831 5828 5824 5819 5816 5813 5810 5807 5803 5800 5798 5795 5792 5789 5786 5783 5781 5779 5776 5773 5770 5767 5765 5762 5760 5757 5755 5753 5752 5749 5746 5743 5741 5738 5735 5733 5731 5729 5727 5726 5724 5721
5830 5827 5824 5820 5816 5812 5809 5806 5803 5800 5797 5794 5791 5788 5785 5782 5779 5777 5774 5772 5770 5767 5764 5762 5759 5757 5754 5752 5750 5748 5746 5744 5741 5738 5736 5733 5731 5729 5727 5725 5723 5721 5720 5718
5823 5820 5817 5814 5810 5806 5802 5799 5796 5793 5790 5787 5784 5781 5778 5775 5772 5770 5768 5765 5763 5761 5759 5757 5754 5752 5750 5747 5745 5743 5741 5739 5736 5734 5731 5729 5727 5725 5723 5721 5719 5717 5715 5714
5817 5813 5810 5807 5803 5799 5796 5793 5790 5786 5783 5780 5777 5774 5770 5768 5766 5764 5761 5759 5757 5755 5753 5751 5749 5747 5745 5743 5741 5739 5737 5735 5732 5730 5728 5726 5723 5721 5720 5718 5716 5714 5712 5711
5811 5807 5803 5800 5797 5793 5792 5786 5783 5779 5776 5773 5770 5767 5764 5761 5759 5757 5754 5752 5750 5748 5747 5745 5744 5742 5740 5739 5737 5735 5733 5731 5728 5727 5725 5723 5720 5718 5716 5714 5712 5711 5710 5708
5804 5801 5797 5793 5790 5787 5784 5780 5776 5772 5770 5767 5763 5760 5757 5755 5753 5751 5749 5746 5744 5743 5741 5740 5738 5737 5736 5734 5732 5731 5729 5727 5725 5723 5721 5719 5717 5715 5713 5711 5710 5708 5707 5705
5798 5794 5791 5787 5783 5780 5779 5774 5769 5767 5763 5760 5757 5754 5751 5748 5747 5746 5743 5741 5739 5737 5736 5734 5733 5732 5731 5729 5728 5726 5724 5722 5721 5719 5717 5715 5714 5712 5710 5709 5707 5706 5704 5702
5792 5788 5785 5781 5777 5774 5771 5767 5764 5762 5759 5754 5750 5748 5745 5743 5741 5740 5737 5735 5733 5732 5730 5729 5728 5727 5726 5724 5723 5721 5720 5718 5717 5716 5714 5712 5711 5709 5708 5706 5705 5703 5702 5700
5785 5782 5778 5775 5771 5769 5764 5761 5758 5755 5751 5748 5745 5742 5740 5737 5735 5733 5731 5729 5728 5727 5725 5724 5723 5722 5721 5720 5718 5717 5716 5715 5713 5712 5711 5710 5708 5707 5706 5704 5703 5701 5700 5698
5778 5775 5771 5769 5767 5762 5757 5754 5751 5748 5745 5742 5739 5737 5734 5732 5730 5728 5726 5725 5723 5722 5721 5720 5719 5718 5717 5716 5715 5714 5712 5711 5710 5709 5708 5707 5706 5705 5704 5702 5701 5699 5698 5696
5771 5768 5765 5761 5759 5755 5752 5748 5745 5742 5739 5736 5733 5731 5728 5726 5724 5723 5722 5721 5719 5718 5718 5717 5716 5715 5714 5713 5712 5710 5709 5708 5707 5706 5705 5705 5704 5703 5701 5700 5699 5698 5696 5695
5764 5760 5757 5754 5751 5748 5745 5741 5738 5735 5733 5730 5728 5725 5723 5720 5719 5718 5717 5717 5716 5715 5715 5714 5713 5713 5712 5710 5709 5708 5707 5706 5705 5704 5703 5702 5702 5701 5700 5699 5698 5696 5695 5693
5756 5753 5750 5747 5744 5740 5738 5735 5732 5729 5727 5725 5722 5720 5718 5716 5715 5714 5714 5713 5713 5712 5712 5712 5711 5710 5709 5708 5707 5706 5705 5704 5703 5702 5701 5701 5700 5700 5699 5698 5697 5695 5694 5692